Weather History for Alexandria, MN

Change the Weather History Date:

Tuesday, October 23, 2012

  Actual Average Record
Temperature  
Mean Temperature 52 °F -  
Max Temperature 59 °F 53 °F 77 °F (1963)
Min Temperature 48 °F 34 °F 21 °F (1981)
Degree Days  
Heating Degree Days 12    
Growing Degree Days 2 (Base 50)    
Moisture  
Dew Point 52 °F    
Average Humidity 95    
Maximum Humidity 100    
Minimum Humidity 83    
Precipitation  
Precipitation 0.04 in - - ()
Sea Level Pressure  
Sea Level Pressure 29.75 in    
Wind  
Wind Speed 10 mph (SE)    
Max Wind Speed 15 mph    
Max Gust Speed -    
Visibility 3 miles    
Events Fog , Rain , Thunderstorm    
Averages and records for this station are not official NWS values.
T = Trace of Precipitation, MM = Missing Value Source: NWS Daily Summary

Daily Weather History Graph

Daily Weather History Graph

Search for Another Location

Airport:

Trip Planner

Search our weather history database for the weather conditions in past years. The results will help you decide how hot, cold, wet, or windy it might be!

Date:

Astronomy

Oct. 23, 2012 Rise Set
Actual Time 7:49 AM CDT 6:20 PM CDT
Civil Twilight 7:19 AM CDT 6:51 PM CDT
Nautical Twilight 6:44 AM CDT 7:26 PM CDT
Astronomical Twilight 6:10 AM CDT 8:00 PM CDT
Moon 3:21 PM CDT (10/23) 1:24 AM CDT (10/23)
Length of Visible Light 11h 32m
Length of Day
10h 31m
Waxing Gibbous, 67% of the Moon is Illuminated
Oct 23
Waxing Gibbous
Oct 29
Full
Nov 6
Last Quarter
Nov 13
New
Nov 20
First Quarter

Hourly Weather History & Observations

Time (CDT) Temp. Dew Point Humidity Pressure Visibility Wind Dir Wind Speed Gust Speed Precip Events Conditions
1:20 AM 48.2 °F 44.6 °F 87% 29.85 in 6.0 mi East 9.2 mph - N/A   Haze
1:53 AM 48.9 °F 44.1 °F 83% 29.85 in 10.0 mi East 12.7 mph - 0.00 in   Overcast
2:53 AM 48.9 °F 44.1 °F 83% 29.83 in 10.0 mi East 9.2 mph - N/A   Overcast
3:53 AM 48.9 °F 45.0 °F 86% 29.81 in 10.0 mi East 12.7 mph - N/A   Overcast
4:53 AM 48.9 °F 46.0 °F 90% 29.80 in 8.0 mi East 12.7 mph - N/A   Overcast
5:00 AM 48.2 °F 46.4 °F 93% 29.78 in 8.0 mi East 12.7 mph - N/A   Overcast
5:53 AM 48.9 °F 46.9 °F 93% 29.80 in 6.0 mi East 10.4 mph - N/A   Overcast
6:00 AM 48.2 °F 46.4 °F 93% 29.78 in 5.0 mi East 11.5 mph - N/A Thunderstorm Overcast
6:10 AM 48.2 °F 46.4 °F 93% 29.78 in 2.5 mi East 10.4 mph - N/A   Overcast
6:42 AM 48.2 °F 48.2 °F 100% 29.76 in 2.5 mi East 15.0 mph - N/A   Overcast
6:53 AM 48.9 °F 48.0 °F 97% 29.78 in 2.5 mi ESE 12.7 mph - N/A   Overcast
7:12 AM 48.2 °F 48.2 °F 100% 29.76 in 3.0 mi East 9.2 mph - 0.01 in   Overcast
7:31 AM 48.2 °F 48.2 °F 100% 29.76 in 2.5 mi ESE 10.4 mph - 0.01 in   Overcast
7:40 AM 48.2 °F 48.2 °F 100% 29.77 in 3.0 mi ESE 11.5 mph - 0.01 in   Overcast
7:50 AM 48.2 °F 48.2 °F 100% 29.76 in 2.5 mi East 10.4 mph - 0.01 in   Overcast
7:53 AM 50.0 °F 48.0 °F 93% 29.78 in 2.0 mi East 12.7 mph - 0.01 in   Overcast
8:22 AM 50.0 °F 48.2 °F 94% 29.75 in 1.2 mi East 13.8 mph - N/A   Overcast
8:53 AM 50.0 °F 48.9 °F 96% 29.77 in 1.0 mi ESE 12.7 mph - N/A   Overcast
9:41 AM 51.8 °F 50.0 °F 94% 29.74 in 0.8 mi East 11.5 mph - N/A   Overcast
9:53 AM 51.1 °F 50.0 °F 96% 29.76 in 0.8 mi East 11.5 mph - N/A   Overcast
10:21 AM 51.8 °F 50.0 °F 94% 29.74 in 0.5 mi East 12.7 mph - N/A Fog Fog
10:53 AM 52.0 °F 51.1 °F 97% 29.75 in 0.5 mi ESE 12.7 mph - N/A Fog Fog
11:53 AM 53.1 °F 52.0 °F 96% 29.73 in 0.2 mi ESE 11.5 mph - N/A Fog Fog
1:53 PM 54.0 °F 54.0 °F 100% 29.70 in 0.2 mi ESE 9.2 mph - N/A Fog Fog
2:53 PM 55.0 °F 54.0 °F 96% 29.69 in 0.2 mi East 9.2 mph - N/A Fog Fog
3:53 PM 55.0 °F 54.0 °F 96% 29.69 in 0.2 mi ESE 9.2 mph - N/A Fog Fog
4:53 PM 55.0 °F 55.0 °F 100% 29.70 in 0.8 mi SE 5.8 mph - N/A   Overcast
5:27 PM 55.4 °F 55.4 °F 100% 29.69 in 0.5 mi Calm Calm - N/A Fog Fog
5:53 PM 55.9 °F 55.0 °F 97% 29.71 in 0.5 mi SE 4.6 mph - N/A Fog Fog
6:26 PM 55.4 °F 55.4 °F 100% 29.69 in 1.0 mi SE 4.6 mph - 0.01 in   Mist
6:41 PM 55.4 °F 55.4 °F 100% 29.68 in 0.8 mi ESE 5.8 mph - 0.01 in   Mist
6:53 PM 55.9 °F 55.0 °F 97% 29.72 in 0.8 mi SE 4.6 mph - 0.01 in   Mist
7:03 PM 55.4 °F 55.4 °F 100% 29.71 in 1.0 mi SSE 5.8 mph - N/A   Mist
7:39 PM 55.4 °F 55.4 °F 100% 29.73 in 1.5 mi South 3.5 mph - N/A   Overcast
7:53 PM 55.9 °F 55.0 °F 97% 29.75 in 1.5 mi Calm Calm - N/A   Overcast
8:03 PM 55.4 °F 55.4 °F 100% 29.73 in 1.2 mi Calm Calm - N/A   Overcast
8:18 PM 57.2 °F 55.4 °F 94% 29.73 in 0.8 mi SW 3.5 mph - N/A   Mist
8:38 PM 57.2 °F 55.4 °F 94% 29.74 in 0.5 mi WSW 4.6 mph - N/A Fog Fog
8:53 PM 57.0 °F 55.9 °F 96% 29.76 in 0.5 mi WSW 6.9 mph - 0.01 in Fog , Rain Light Rain
8:59 PM 57.2 °F 55.4 °F 94% 29.75 in 1.0 mi WSW 6.9 mph - 0.00 in Rain Light Rain
9:10 PM 57.2 °F 55.4 °F 94% 29.74 in 1.8 mi SW 5.8 mph - 0.01 in   Overcast
9:19 PM 57.2 °F 55.4 °F 94% 29.74 in 2.5 mi WSW 5.8 mph - 0.01 in   Overcast
9:53 PM 57.0 °F 55.9 °F 96% 29.77 in 3.0 mi SW 6.9 mph - 0.01 in   Overcast
10:04 PM 57.2 °F 55.4 °F 94% 29.76 in 3.0 mi WSW 6.9 mph - N/A   Overcast
10:16 PM 57.2 °F 55.4 °F 94% 29.76 in 2.5 mi WSW 6.9 mph - N/A   Overcast
10:28 PM 57.2 °F 55.4 °F 94% 29.76 in 2.5 mi WSW 8.1 mph - N/A   Overcast
10:32 PM 57.2 °F 55.4 °F 94% 29.76 in 3.0 mi WSW 8.1 mph - N/A   Overcast
10:53 PM 55.9 °F 55.0 °F 97% 29.78 in 4.0 mi West 6.9 mph - N/A   Overcast
11:00 PM 55.4 °F 55.4 °F 100% 29.77 in 4.0 mi West 10.4 mph - N/A   Overcast
11:44 PM 55.4 °F 53.6 °F 94% 29.78 in 6.0 mi West 10.4 mph - N/A   Overcast
11:53 PM 55.9 °F 54.0 °F 93% 29.79 in 6.0 mi WNW 8.1 mph - N/A   Overcast